Regional Weather Roundup
Issued by NWS Charleston, SC

Current Version | Previous Version | Text Only | Print | Product List | Glossary Off
Versions: 1 2 3 4 5 6 7 8 9 10 11 12 13 14 15 16 17 18 19 20 21 22 23 24 25 26 27 28 29 30 31 32 33 34 35 36 37 38 39 40 41 42 43 44 45 46 47 48 49 50

000
ASUS42 KCHS 101925
RWRCHS

REGIONAL WEATHER ROUNDUP
NATIONAL WEATHER SERVICE CHARLESTON SC
300 PM EDT THU JUL 10 2014

NOTE: "FAIR" INDICATES FEW OR NO CLOUDS BELOW 12,000 FEET WITH NO
SIGNIFICANT WEATHER AND/OR OBSTRUCTIONS TO VISIBILITY.

NOT ALL STATIONS ARE QUALITY CONTROLLED BY THE NATIONAL
WEATHER SERVICE. USE DATA WITH CAUTION...ESPECIALLY
DEWPOINT OBSERVATIONS.

SCZ027-030-031-034>040-042>050-102000-
...SOUTH CAROLINA...

CITY           SKY/WX    TMP DP  RH WIND       PRES   REMARKS
N CHARLESTON   MOSUNNY   93  70  46 SW15      30.05F HX  99
WATERFRONT PRK   N/A     86 N/A N/A S15G21      N/A
FORT JOHNSON   NOT AVBL
MOUNT PLEASANT FAIR      90  75  62 S17       30.05F HX 100
JOHNS ISLAND   CLEAR     90  70  51 S15       30.06F HX  95
PINOPOLIS        N/A     91  70  49 S8        29.97F HX  97
MONCKS CORNER    N/A     93  73  52 S10G16    30.02F HX 102
SUMMERVILLE    MOCLDY    91  70  49 S9G17     30.04F HX  97
BEAUFORT MCAS  PTSUNNY   91  72  53 SW7       30.05F HX  98
BEAUFORT ARPT  FAIR      90  73  58 S8        30.04F HX  98
HILTON HEAD IS MOSUNNY   90  75  62 S6        30.07F HX 100
GEORGETOWN     NOT AVBL
WALTERBORO     MOCLDY    93  63  36 SW10      30.03F HX  94
ORANGEBURG     MOSUNNY   90  68  48 W12       30.04F HX  94
BARNWELL       FAIR      91  68  46 SW7       30.03F HX  95
AIKEN          FAIR      90  70  51 SW13      30.07F HX  95
MANNING        FAIR      93  70  46 S8G17     30.02F HX  99
KINGSTREE      NOT AVBL
COLUMBIA       PTSUNNY   89  69  51 SW6       30.03F HX  93
SUMTER         MOSUNNY   91  68  46 SW17      30.01F HX  95
FLORENCE       MOSUNNY   94  67  41 SW15G23   30.01F HX  97
MYRTLE BEACH   MOSUNNY   88  75  66 S23       30.03F HX  97
N MYRTLE BEACH MOSUNNY   87  76  69 S17G31    30.04F HX  97

$$

GAZ063-065-086>088-099>101-113>116-118-119-134-136>141-150-102000-
...GEORGIA...

CITY           SKY/WX    TMP DP  RH WIND       PRES   REMARKS
SAVANNAH ARPT  PTSUNNY   93  71  48 VRB6      30.05F HX 100
HUNTER AAF     PTSUNNY   88  75  66 SE9       30.03F HX  97
FORT STEWART   PTSUNNY   91  70  49 SE7       30.03F HX  97
STATESBORO     NOT AVBL
SYLVANIA       MOCLDY    90  72  54 S6        30.04F HX  97
CLAXTON        FAIR      91  72  52 W5        30.03F HX  98
THOMSON        MOSUNNY   86  78  75 CALM      30.08F HX  98
AUGUSTA-BUSH   MOSUNNY   91  66  43 S5        30.03F HX  93
AUGUSTA-DANIEL MOSUNNY   91  68  46 S8        30.05F HX  95
SWAINSBORO     FAIR      93  72  49 S6        30.05F HX 100
VIDALIA          N/A     90  72  55 W6        30.04F HX  96
ALMA           MOSUNNY   91  67  44 SW7       30.05F HX  94
WAYCROSS       MOSUNNY   94  74  52 SW8       30.05F HX 104
JESUP          NOT AVBL
BRUNSWICK      SUNNY     91  72  52 CALM      30.05F HX  98
SAINT SIMONS   SUNNY     88  74  63 SE13      30.06F HX  96

$$

SCZ027-028-034-036>038-045-046-048>050-GAZ119-141-102000-
...LAKE AND SUPPLEMENTAL COASTAL OBSERVATIONS...

STATION/POSITION TIME  TEMP    WIND        PRES    WAVE   SWELL
                       AIR SEA DIR/SP/G            HT/PER HT/PER/DIR
                 (UTC) (F)     (DEG/KT/KT) (MB)    (FT/S) (FT/S/D)
UPR LAKE MARION  NOT AVBL
WINYAH BAY       1900   87     200/ 12     1017.0S
LAKE MURRAY      1900   85     230/  5/  7 1016.6S
ACE BASIN NERRS  1900   89     170/  2     1018.0S
FORT PULASKI     1900   87 79  180/  7/ 11   N/A
SAPELO ISLAND    1800   91     160/ 10     1019.0F

$$

ANZ835-935-AMZ111-154-330-350-352-354-374-450-454-472-102000-
...C-MAN AND BUOY OBSERVATIONS...

STATION/POSITION TIME  TEMP    WIND        PRES    WAVE   SWELL
                       AIR SEA DIR/SP/G            HT/PER HT/PER/DIR
                 (UTC) (F)     (DEG/KT/KT) (MB)    (FT/S) (FT/S/D)
FOLLY BEACH CMAN 1900   84     200/ 14/ 16 1018.5F
BUOY 41004       1900   82 82  200/ 12/ 16 1018.1F   4/ 6   2/ 8
BUOY 41008       1900   82 85  180/ 12/ 14 1018.3F   2/ 9   2/ 90/ 9
5E ST. MARYS GA  1900      85                N/A     2/ 9
FRYING PAN BUOY  NOT AVBL
BUOY 41025       1900          VRB 17/ 19  1018.4F   4/ 6   2/100/ 9
CAPE LOOKOUT NC  1900   81     200/ 14/ 16 1018.2F
BUOY 41002       1759   81 81  210/ 12/ 14 1022.3F   3/ 8   2/130/ 8
BUOY 41010       1900   80 83  210/  4/  6 1020.8F   3/ 9   2/120/ 9
BUOY 41012       NOT AVBL
ST AUGUSTINE FL  1900   82     170/  8/  9 1020.3F
CAPERS NEARSHORE 1800   83     210/ 14/ 17   N/A
FRIPP NEARSHORE  1800   85     220/ 14/ 16   N/A


$$


USA.gov is the U.S. government's official web portal to all federal, state and local government web resources and services.